Weather History for Immokalee Regional Airport [I, FL

Change the Weather History Date:

Friday, July 4, 2014

  Actual Average (KFMY) Record (KFMY)
Temperature  
Mean Temperature 84 °F 83 °F  
Max Temperature 96 °F 92 °F 100 °F (1942)
Min Temperature 73 °F 74 °F 68 °F (1956)
Degree Days  
Heating Degree Days 0 0  
Month to date heating degree days 0  
Since 1 June heating degree days 0  
Since 1 July heating degree days 0  
Cooling Degree Days 20 18  
Month to date cooling degree days 72  
Year to date cooling degree days 1663  
Since 1 June cooling degree days 597  
Growing Degree Days 34 (Base 50)    
Moisture  
Dew Point 77 °F    
Average Humidity 73    
Maximum Humidity 100    
Minimum Humidity 49    
Precipitation  
Precipitation 0.19 in 0.30 in 3.09 in (1974)
Month to date precipitation 1.25  
Year to date precipitation 23.14  
Sea Level Pressure  
Sea Level Pressure 30.12 in    
Wind  
Wind Speed 2 mph (SSW)    
Max Wind Speed 16 mph    
Max Gust Speed 31 mph    
T = Trace of Precipitation, MM = Missing Value Source: NWS Daily Summary

Daily Weather History Graph

Daily Weather History Graph

Search for Another Location

Airport:

Trip Planner

Search our weather history database for the weather conditions in past years. The results will help you decide how hot, cold, wet, or windy it might be!

Date:

Astronomy

Jul. 04, 2014 Rise Set
Actual Time 6:37 AM EDT 8:22 PM EDT
Civil Twilight 6:11 AM EDT 8:48 PM EDT
Nautical Twilight 5:40 AM EDT 9:19 PM EDT
Astronomical Twilight 5:07 AM EDT 9:52 PM EDT
Moon 12:52 PM EDT (7/4) 12:21 AM EDT (7/4)
Length of Visible Light 14h 37m
Length of Day
13h 45m
Waxing Crescent, 42% of the Moon is Illuminated
Jul 4
Waxing Crescent
Jul 5
First Quarter
Jul 12
Full
Jul 18
Last Quarter
Jul 26
New

Hourly Weather History & Observations

Time (EDT) Temp. Heat Index Dew Point Humidity Pressure Visibility Wind Dir Wind Speed Gust Speed Precip Events Conditions
12:35 AM 78.8 °F - - N/A% 30.13 in - Calm Calm - 0.00 in   Unknown
12:55 AM 77.0 °F - - N/A% 30.12 in - Calm Calm - 0.00 in   Unknown
1:15 AM 77.0 °F - - N/A% 30.12 in - Calm Calm - 0.00 in   Unknown
1:35 AM 75.2 °F - - N/A% 30.11 in - Calm Calm - 0.00 in   Unknown
1:55 AM 75.2 °F - - N/A% 30.11 in - Calm Calm - 0.00 in   Unknown
2:15 AM 75.2 °F - - N/A% 30.11 in - Calm Calm - 0.00 in   Unknown
2:35 AM 75.2 °F - - N/A% 30.11 in - Calm Calm - 0.00 in   Unknown
2:55 AM 75.2 °F - - N/A% 30.10 in - Calm Calm - 0.00 in   Unknown
3:15 AM 75.2 °F - - N/A% 30.11 in - Calm Calm - 0.00 in   Unknown
3:35 AM 75.2 °F - - N/A% 30.10 in - Calm Calm - 0.00 in   Unknown
3:55 AM 75.2 °F - - N/A% 30.10 in - Calm Calm - 0.00 in   Unknown
4:15 AM 75.2 °F - - N/A% 30.11 in - Calm Calm - 0.00 in   Unknown
4:35 AM 75.2 °F - - N/A% 30.11 in - Calm Calm - 0.00 in   Unknown
4:55 AM 75.2 °F - - N/A% 30.11 in - Calm Calm - 0.00 in   Unknown
5:15 AM 75.2 °F - - N/A% 30.11 in - Calm Calm - 0.00 in   Unknown
5:35 AM 75.2 °F - - N/A% 30.11 in - Calm Calm - 0.00 in   Unknown
5:55 AM 75.2 °F - - N/A% 30.11 in - South 6.9 mph - 0.00 in   Unknown
6:15 AM 73.4 °F - - N/A% 30.11 in - Calm Calm - 0.00 in   Unknown
6:35 AM 73.4 °F - - N/A% 30.11 in - Calm Calm - 0.00 in   Unknown
6:55 AM 73.4 °F - - N/A% 30.12 in - Calm Calm - 0.00 in   Unknown
7:15 AM 73.4 °F - - N/A% 30.13 in - Calm Calm - 0.00 in   Unknown
7:35 AM 75.2 °F - - N/A% 30.13 in - South 4.6 mph - 0.00 in   Unknown
7:55 AM 77.0 °F - - N/A% 30.13 in - Calm Calm - 0.00 in   Unknown
8:15 AM 80.6 °F 89.3 °F 80.6 °F 100% 30.14 in - South 3.5 mph - 0.00 in   Unknown
8:35 AM 82.4 °F 96.1 °F 82.4 °F 100% 30.14 in - South 5.8 mph - 0.00 in   Unknown
8:55 AM 84.2 °F 100.6 °F 82.4 °F 94% 30.14 in - SSE 5.8 mph - 0.00 in   Unknown
9:15 AM 86.0 °F 104.7 °F 82.4 °F 89% 30.14 in - SSE 6.9 mph - 0.00 in   Unknown
9:35 AM 87.8 °F 108.2 °F 82.4 °F 84% 30.14 in - South 4.6 mph - 0.00 in   Clear
9:55 AM 89.6 °F 108.2 °F 80.6 °F 75% 30.14 in - SSW 4.6 mph - 0.00 in   Clear
10:15 AM 91.4 °F 111.0 °F 80.6 °F 71% 30.15 in - Calm Calm - 0.00 in   Clear
10:35 AM 91.4 °F 111.0 °F 80.6 °F 71% 30.15 in - South 4.6 mph - 0.00 in   Partly Cloudy
10:55 AM 91.4 °F 107.2 °F 78.8 °F 66% 30.15 in - SSW 5.8 mph - 0.00 in   Partly Cloudy
11:15 AM 93.2 °F 107.2 °F 77.0 °F 59% 30.15 in - South 8.1 mph - 0.00 in   Partly Cloudy
11:35 AM 95.0 °F 107.4 °F 75.2 °F 53% 30.15 in - SW 6.9 mph - 0.00 in   Partly Cloudy
11:55 AM 93.2 °F 105.0 °F 75.2 °F 56% 30.14 in - West 6.9 mph - 0.00 in   Scattered Clouds
12:15 PM 95.0 °F 107.4 °F 75.2 °F 53% 30.14 in - WSW 4.6 mph - 0.00 in   Partly Cloudy
12:35 PM 93.2 °F 105.0 °F 75.2 °F 56% 30.14 in - Calm Calm - 0.00 in   Partly Cloudy
12:55 PM 82.4 °F 88.2 °F 73.4 °F 74% 30.15 in - North 6.9 mph 31.1 mph 0.19 in   Mostly Cloudy
1:15 PM 80.6 °F 89.3 °F 80.6 °F 100% 30.15 in - Calm Calm - 0.00 in   Unknown
1:35 PM 84.2 °F 100.6 °F 82.4 °F 94% 30.14 in - SE 5.8 mph - 0.00 in   Unknown
1:55 PM 89.6 °F 111.1 °F 82.4 °F 79% 30.12 in - SSE 6.9 mph - 0.00 in   Clear
2:15 PM 93.2 °F 113.6 °F 80.6 °F 67% 30.12 in - SSW 10.4 mph - 0.00 in   Clear
2:35 PM 84.2 °F 92.3 °F 75.2 °F 74% 30.12 in - WSW 6.9 mph - 0.00 in   Partly Cloudy
2:55 PM 84.2 °F 96.1 °F 78.8 °F 84% 30.11 in - Calm Calm - 0.00 in   Clear
3:15 PM 87.8 °F 102.5 °F 78.8 °F 75% 30.10 in - Calm Calm - 0.00 in   Clear
3:35 PM 91.4 °F 107.2 °F 78.8 °F 66% 30.10 in - Calm Calm - 0.00 in   Clear
3:55 PM 93.2 °F 105.0 °F 75.2 °F 56% 30.10 in - West 8.1 mph - 0.00 in   Partly Cloudy
4:15 PM 96.8 °F 109.6 °F 75.2 °F 50% 30.09 in - West 10.4 mph - 0.00 in   Scattered Clouds
4:35 PM 95.0 °F 104.5 °F 73.4 °F 49% 30.08 in - SW 10.4 mph - 0.00 in   Clear
4:55 PM 93.2 °F 102.4 °F 73.4 °F 52% 30.08 in - West 9.2 mph 16.1 mph 0.00 in   Clear
5:15 PM 93.2 °F 102.4 °F 73.4 °F 52% 30.08 in - West 8.1 mph - 0.00 in   Clear
5:35 PM 95.0 °F 104.5 °F 73.4 °F 49% 30.09 in - West 6.9 mph - 0.00 in   Clear
5:55 PM 95.0 °F 104.5 °F 73.4 °F 49% 30.09 in - WSW 5.8 mph - 0.00 in   Scattered Clouds
6:15 PM 95.0 °F 104.5 °F 73.4 °F 49% 30.10 in - WNW 5.8 mph - 0.00 in   Partly Cloudy
6:55 PM 87.8 °F 95.6 °F 73.4 °F 62% 30.12 in - East 12.7 mph - 0.00 in   Mostly Cloudy
7:15 PM 82.4 °F 88.2 °F 73.4 °F 74% 30.13 in - East 12.7 mph 17.3 mph 0.00 in   Mostly Cloudy
7:35 PM 80.6 °F 87.1 °F 77.0 °F 89% 30.14 in - SSE 16.1 mph 19.6 mph 0.00 in   Unknown
7:55 PM 78.8 °F - 78.8 °F 100% 30.13 in - SSE 8.1 mph - 0.00 in   Unknown
8:15 PM 77.0 °F - 77.0 °F 100% 30.12 in - WSW 3.5 mph - 0.00 in   Unknown
8:35 PM 75.2 °F - 75.2 °F 100% 30.11 in - South 4.6 mph - 0.00 in   Unknown
8:55 PM 75.2 °F - - N/A% 30.11 in - Calm Calm - 0.00 in   Unknown
9:15 PM 75.2 °F - 75.2 °F 100% 30.11 in - Calm Calm - 0.00 in   Unknown
9:35 PM 75.2 °F - - N/A% 30.11 in - Calm Calm - 0.00 in   Unknown
9:55 PM 75.2 °F - - N/A% 30.12 in - Calm Calm - 0.00 in   Unknown
10:15 PM 75.2 °F - - N/A% 30.12 in - Calm Calm - 0.00 in   Unknown
10:35 PM 75.2 °F - - N/A% 30.12 in - Calm Calm - 0.00 in   Unknown
10:55 PM 75.2 °F - - N/A% 30.13 in - Calm Calm - 0.00 in   Unknown
11:15 PM 75.2 °F - - N/A% 30.13 in - Calm Calm - 0.00 in   Unknown
11:35 PM 75.2 °F - - N/A% 30.13 in - Calm Calm - 0.00 in   Unknown